1498104000.09,52755,19.88,74086.5,5.17,-25.55,-26.13,0,*7F
1498104001.37,52756,19.88,74082.5,5.17,-25.71,-26.13,0,*7A
1498104002.65,52757,19.94,74086.5,5.17,-25.71,-26.13,0,*7B
1498104003.9,52758,19.88,74090.5,5.19,-25.81,-26.17,0,*71
1498104005.14,52759,19.88,74084.0,5.19,-25.55,-26.03,0,*7C
1498104006.37,52760,19.88,74084.3,5.21,-25.45,-25.91,0,*74
1498104007.6,52761,19.88,74092.5,5.19,-25.65,-25.97,0,*7A
1498104008.83,52762,19.88,74090.3,5.19,-25.65,-25.97,0,*79
1498104010.06,52763,19.88,74094.0,5.19,-25.65,-25.97,0,*78
1498104011.31,52764,19.88,74094.0,5.21,-25.61,-25.97,0,*70
1498104012.56,52765,19.88,74090.5,5.19,-25.71,-26.17,0,*70
1498104013.76,52766,19.88,74090.0,5.19,-25.91,-26.23,0,*7A
1498104014.96,52767,19.88,74092.3,5.19,-26.03,-26.45,0,*73
1498104016.17,52768,19.88,74096.5,5.19,-26.03,-26.45,0,*7C
1498104017.42,52769,19.88,74094.3,5.21,-25.97,-26.39,0,*73
1498104018.68,52770,19.88,74098.3,5.19,-25.97,-26.33,0,*7A
1498104019.95,52771,19.88,74094.8,5.21,-25.81,-26.29,0,*7C
1498104021.2,52772,19.88,74084.5,5.19,-25.81,-26.29,0,*74
1498104022.43,52773,19.88,74078.5,5.19,-25.97,-26.45,0,*78
1498104023.65,52774,19.88,74076.0,5.19,-26.13,-26.45,0,*70
1498104024.87,52775,19.88,74076.3,5.21,-25.91,-26.39,0,*78
1498104026.12,52776,19.88,74086.0,5.21,-25.97,-26.39,0,*7D
1498104027.35,52777,19.88,74078.5,5.19,-25.87,-26.33,0,*7C
1498104028.58,52778,19.88,74086.5,5.19,-25.87,-26.33,0,*73
1498104029.84,52779,19.88,74084.8,5.19,-25.97,-26.33,0,*73
1498104031.05,52780,19.88,74072.8,5.19,-26.03,-26.45,0,*7A
1498104032.27,52781,19.88,74090.0,5.19,-26.13,-26.49,0,*76
1498104033.52,52782,19.88,74098.8,5.19,-26.17,-26.55,0,*7C
1498104034.74,52783,19.88,74102.5,5.19,-26.13,-26.49,0,*74
1498104036.02,52784,19.88,74092.8,5.17,-25.97,-26.33,0,*7F
1498104037.22,52785,19.88,74092.0,5.19,-25.87,-26.45,0,*70
1498104038.44,52786,19.94,74098.3,5.19,-25.91,-26.29,0,*7E
1498104039.71,52787,19.88,74082.5,5.21,-25.81,-26.29,0,*75
1498104040.94,52788,19.88,74078.8,5.19,-25.87,-26.29,0,*77
1498104042.17,52789,19.88,74078.0,5.19,-25.87,-26.29,0,*76
1498104043.42,52790,19.88,74076.3,5.19,-25.81,-26.17,0,*75
1498104044.68,52791,19.88,74084.3,5.19,-25.97,-26.33,0,*75
1498104045.88,52792,19.88,74090.5,5.19,-26.03,-26.49,0,*75
1498104047.1,52793,19.88,74086.3,5.21,-26.07,-26.45,0,*77
1498104048.34,52794,19.88,74078.8,5.19,-26.03,-26.33,0,*7E
1498104049.54,52795,19.88,74092.3,5.19,-26.03,-26.45,0,*7E
1498104050.78,52796,19.88,74094.0,5.19,-26.03,-26.33,0,*7C
1498104052.01,52797,19.88,74092.3,5.19,-25.87,-26.29,0,*79
1498104053.22,52798,19.88,74090.5,5.21,-25.91,-26.23,0,*70
1498104054.47,52799,19.94,74094.8,5.21,-25.91,-26.29,0,*7B
1498104055.72,52800,19.88,74088.5,5.19,-25.97,-26.29,0,*79
1498104056.95,52801,19.88,74092.5,5.19,-25.87,-26.33,0,*72
1498104058.18,52802,19.88,74096.5,5.19,-25.87,-26.17,0,*77
1498104059.41,52803,19.88,74096.3,5.19,-25.81,-26.03,0,*75
1498104060.62,52804,19.88,74094.8,5.19,-25.65,-26.03,0,*78
1498104061.86,52805,19.88,74088.0,5.19,-25.81,-26.17,0,*76
1498104063.13,52806,19.88,74106.3,5.21,-25.81,-26.13,0,*7A
1498104064.38,52807,19.88,74102.8,5.21,-25.75,-26.07,0,*75
1498104065.62,52808,19.94,74100.0,5.21,-25.81,-26.23,0,*77
1498104066.87,52809,19.88,74098.3,5.21,-25.91,-26.29,0,*7D
1498104068.06,52810,19.88,74100.5,5.23,-25.91,-26.23,0,*7D
1498104069.28,52811,19.88,74100.8,5.23,-25.91,-26.13,0,*7F
1498104070.47,52812,19.88,74098.3,5.23,-25.91,-26.23,0,*7F
1498104071.69,52813,19.88,74094.5,5.23,-25.81,-26.23,0,*7F
1498104072.96,52814,19.88,74090.3,5.21,-25.81,-26.29,0,*70
1498104074.19,52815,19.94,74088.0,5.19,-25.97,-26.45,0,*77
1498104075.46,52816,19.94,74086.8,5.21,-25.81,-26.29,0,*72
1498104076.69,52817,19.94,74084.3,5.19,-25.91,-26.29,0,*79
1498104077.91,52818,19.88,74072.8,5.19,-26.13,-26.45,0,*75
1498104079.13,52819,19.88,74072.3,5.21,-26.07,-26.49,0,*76
1498104080.37,52820,19.88,74092.5,5.21,-26.13,-26.49,0,*79
1498104081.59,52821,19.88,74094.5,5.21,-26.07,-26.45,0,*71
1498104082.81,52822,19.88,74090.8,5.21,-26.07,-26.45,0,*72
1498104084.02,52823,19.88,74090.0,5.21,-26.23,-26.49,0,*79
1498104085.24,52824,19.88,74094.0,5.21,-26.07,-26.49,0,*78
1498104086.45,52825,19.88,74094.0,5.21,-26.23,-26.49,0,*7F
1498104087.66,52826,19.88,74096.0,5.21,-26.23,-26.45,0,*70
1498104088.91,52827,19.88,74096.3,5.19,-26.29,-26.55,0,*71
1498104090.18,52828,19.88,74098.8,5.21,-26.29,-26.77,0,*75
1498104091.43,52829,19.88,74100.8,5.21,-26.29,-26.65,0,*77
1498104092.65,52830,19.88,74100.8,5.19,-26.29,-26.49,0,*7A
1498104093.86,52831,19.94,74102.5,5.21,-26.23,-26.49,0,*7A
1498104095.11,52832,19.94,74100.8,5.19,-26.17,-26.55,0,*78
1498104096.36,52833,19.88,74104.0,5.19,-26.29,-26.55,0,*74
1498104097.6,52834,19.88,74102.3,5.19,-26.29,-26.55,0,*73
1498104098.85,52835,19.88,74104.5,5.21,-26.13,-26.45,0,*71
1498104100.08,52836,19.94,74106.3,5.19,-26.03,-26.33,0,*79
1498104101.31,52837,19.94,74110.3,5.21,-25.91,-26.39,0,*71
1498104102.53,52838,19.88,74104.5,5.19,-25.81,-26.23,0,*7F
1498104103.74,52839,19.94,74100.8,5.21,-25.91,-26.23,0,*74
1498104104.97,52840,19.88,74100.0,5.19,-25.87,-26.17,0,*71
1498104106.22,52841,19.88,74098.3,5.21,-25.75,-26.07,0,*77
1498104107.49,52842,19.88,74098.8,5.21,-25.97,-26.29,0,*74
1498104108.71,52843,19.88,74094.8,5.21,-25.91,-26.23,0,*79
1498104109.95,52844,19.88,74088.0,5.21,-25.91,-26.29,0,*74
1498104111.18,52845,19.88,74088.0,5.21,-26.07,-26.39,0,*78
1498104112.38,52846,19.94,74086.8,5.19,-26.03,-26.45,0,*7F
1498104113.61,52847,19.88,74088.0,5.19,-26.13,-26.49,0,*73
1498104114.83,52848,19.88,74088.5,5.21,-26.07,-26.39,0,*75
1498104116.06,52849,19.88,74094.8,5.21,-26.07,-26.39,0,*74
1498104117.3,52850,19.88,74094.8,5.21,-26.07,-26.29,0,*7D
1498104118.53,52851,19.94,74088.0,5.21,-26.07,-26.39,0,*7D
1498104119.78,52852,19.88,74082.0,5.21,-25.97,-26.39,0,*74
1498104121.01,52853,19.88,74074.8,5.21,-26.07,-26.39,0,*7F
1498104122.23,52854,19.94,74084.0,5.19,-26.13,-26.45,0,*7D
1498104123.48,52855,19.94,74090.5,5.21,-26.07,-26.29,0,*78
1498104124.7,52856,19.88,74094.5,5.21,-26.07,-26.45,0,*71
1498104125.91,52857,19.88,74094.5,5.21,-26.23,-26.49,0,*7A
1498104127.15,52858,19.88,74088.8,5.21,-26.13,-26.49,0,*76
1498104128.36,52859,19.88,74100.8,5.21,-26.23,-26.49,0,*74
1498104129.61,52860,19.88,74104.3,5.19,-26.17,-26.55,0,*7F
1498104130.82,52861,19.94,74100.5,5.21,-26.23,-26.45,0,*73
1498104132.07,52862,19.94,74098.8,5.21,-26.13,-26.39,0,*78
1498104133.3,52863,19.94,74094.0,5.19,-26.17,-26.49,0,*71
1498104134.52,52864,19.94,74104.3,5.21,-26.07,-26.49,0,*7C
1498104135.76,52865,19.88,74106.8,5.21,-26.13,-26.49,0,*78
1498104137.0,52866,19.94,74110.3,5.21,-26.13,-26.45,0,*77
1498104138.24,52867,19.88,74106.0,5.21,-26.13,-26.49,0,*7A
1498104139.47,52868,19.94,74098.8,5.21,-26.07,-26.39,0,*77
1498104140.74,52869,19.94,74090.3,5.21,-25.97,-26.29,0,*7D
1498104141.99,52870,19.94,74088.0,5.21,-25.97,-26.39,0,*74
1498104143.25,52871,19.94,74090.0,5.21,-25.97,-26.39,0,*75
1498104144.52,52872,19.88,74082.3,5.21,-26.13,-26.29,0,*78
1498104145.77,52873,19.88,74094.8,5.21,-26.13,-26.39,0,*78
1498104147.01,52874,19.88,74092.8,5.21,-26.13,-26.49,0,*78
1498104148.26,52875,19.94,74094.8,5.19,-26.29,-26.55,0,*76
1498104149.5,52876,19.88,74096.0,5.21,-26.13,-26.45,0,*76
1498104150.73,52877,19.94,74098.8,5.19,-26.17,-26.45,0,*78
1498104151.96,52878,19.88,74100.8,5.19,-26.03,-26.33,0,*73
1498104153.23,52879,19.88,74100.0,5.21,-25.81,-26.13,0,*72
1498104154.48,52880,19.88,74092.3,5.21,-25.81,-26.07,0,*71
1498104155.73,52881,19.88,74096.0,5.21,-25.65,-25.97,0,*70
1498104156.98,52882,19.88,74088.8,5.21,-25.75,-26.07,0,*78
1498104158.22,52883,19.88,74084.5,5.21,-25.91,-26.13,0,*76
1498104159.47,52884,19.88,74082.8,5.23,-25.81,-26.13,0,*72
1498104160.66,52885,19.94,74082.3,5.23,-25.91,-26.23,0,*71
1498104161.85,52886,19.94,74088.5,5.23,-25.91,-26.23,0,*72
1498104163.08,52887,19.94,74094.5,5.23,-25.91,-26.13,0,*70
1498104164.3,52888,19.88,74080.3,5.25,-25.75,-26.07,0,*76
1498104165.5,52889,19.94,74078.5,5.23,-25.91,-26.23,0,*7D
1498104166.72,52890,19.94,74084.8,5.25,-25.91,-26.17,0,*74
1498104167.94,52891,19.88,74072.0,5.25,-25.91,-26.17,0,*75
1498104169.19,52892,19.94,74078.8,5.23,-25.81,-26.13,0,*75
1498104170.41,52893,19.88,74088.3,5.23,-25.75,-26.07,0,*7A
1498104171.61,52894,19.94,74090.8,5.23,-25.65,-26.07,0,*7C
1498104172.81,52895,19.94,74092.3,5.23,-25.61,-26.03,0,*7D
1498104174.01,52896,19.88,74092.3,5.25,-25.61,-25.91,0,*70
1498104175.21,52897,19.94,74094.3,5.23,-25.65,-26.07,0,*7F
1498104176.44,52898,19.88,74094.0,5.25,-25.71,-25.91,0,*7F
1498104177.67,52899,19.88,74090.5,5.25,-25.71,-25.91,0,*7E
1498104178.89,52900,19.88,74086.3,5.25,-25.75,-26.07,0,*77
1498104180.1,52901,19.88,74074.8,5.25,-25.87,-26.07,0,*7B
1498104181.33,52902,19.88,74074.0,5.25,-25.75,-26.07,0,*75
1498104182.56,52903,19.88,74080.5,5.25,-25.71,-26.03,0,*74
1498104183.77,52904,19.94,74084.3,5.25,-25.61,-26.03,0,*72
1498104185.02,52905,19.88,74080.5,5.31,-25.81,-26.03,0,*78
1498104186.27,52906,19.88,74080.0,5.29,-25.81,-25.97,0,*7C
1498104187.52,52907,19.94,74082.5,5.29,-25.81,-25.97,0,*7D
1498104188.75,52908,19.88,74080.5,5.29,-25.71,-26.03,0,*73
1498104190.01,52909,19.94,74086.0,5.31,-25.71,-26.03,0,*7B
1498104191.27,52910,19.88,74078.3,5.31,-25.71,-26.03,0,*73
1498104192.5,52911,19.94,74072.5,5.29,-25.71,-26.03,0,*7B
1498104193.74,52912,19.88,74060.0,5.29,-25.71,-26.03,0,*78
1498104194.99,52913,19.94,74064.5,5.31,-25.87,-26.13,0,*78
1498104196.27,52914,19.94,74070.0,5.31,-25.97,-26.29,0,*77
1498104197.55,52915,19.88,74072.5,5.31,-25.97,-26.29,0,*76
1498104198.77,52916,19.88,74078.0,5.29,-25.87,-26.17,0,*70
1498104200.0,52917,19.88,74086.8,5.31,-25.87,-26.03,0,*7D
1498104201.22,52918,19.94,74090.3,5.29,-25.87,-26.17,0,*7E
1498104202.45,52919,19.94,74090.8,5.29,-25.87,-26.13,0,*7B
1498104203.68,52920,19.88,74086.0,5.29,-25.97,-26.03,0,*71
1498104204.94,52921,19.94,74094.5,5.31,-25.71,-26.03,0,*71
1498104206.21,52922,19.88,74076.3,5.31,-25.81,-26.13,0,*7C
1498104207.47,52923,19.88,74070.5,5.31,-25.71,-26.03,0,*73
1498104208.73,52924,19.88,74068.5,5.31,-25.87,-26.13,0,*7C
1498104209.98,52925,19.88,74074.0,5.31,-25.87,-26.13,0,*7D
1498104211.23,52926,19.88,74084.0,5.31,-25.87,-26.13,0,*7E
1498104212.51,52927,19.94,74092.0,5.31,-25.97,-26.13,0,*7E
1498104213.76,52928,19.94,74092.5,5.31,-25.71,-25.87,0,*77
1498104214.99,52929,19.88,74082.8,5.31,-25.65,-25.87,0,*73
1498104216.18,52930,19.94,74078.3,5.33,-25.61,-25.91,0,*7A
1498104217.41,52931,19.88,74098.3,5.35,-25.65,-25.91,0,*79
1498104218.65,52932,19.88,74096.5,5.35,-25.45,-25.91,0,*78
1498104219.87,52933,19.94,74098.0,5.33,-25.61,-25.81,0,*78
1498104221.09,52934,19.94,74090.0,5.33,-25.61,-25.81,0,*7F
1498104222.29,52935,19.94,74090.5,5.33,-25.49,-25.91,0,*75
1498104223.51,52936,19.94,74086.8,5.35,-25.61,-25.91,0,*7A
1498104224.74,52937,19.88,74086.8,5.35,-25.61,-25.91,0,*7B
1498104225.97,52938,19.94,74086.3,5.35,-25.49,-25.91,0,*7E
1498104227.22,52939,19.94,74082.3,5.35,-25.61,-25.97,0,*73
1498104228.48,52940,19.94,74084.8,5.35,-25.65,-25.97,0,*79
1498104229.7,52941,19.94,74088.3,5.35,-25.65,-25.91,0,*7E
1498104230.93,52942,19.94,74086.8,5.35,-25.65,-25.91,0,*7D
1498104232.15,52943,19.88,74086.5,5.35,-25.65,-25.91,0,*7C
1498104233.43,52944,19.94,74090.0,5.35,-25.75,-25.97,0,*7C
1498104234.66,52945,19.94,74092.0,5.35,-25.65,-25.91,0,*7A
1498104235.88,52946,19.94,74090.0,5.35,-25.65,-25.91,0,*79
1498104237.14,52947,19.88,74088.0,5.35,-25.65,-25.97,0,*7E
1498104238.39,52948,19.88,74090.5,5.35,-25.65,-25.81,0,*76
1498104239.59,52949,19.94,74090.5,5.37,-25.61,-25.87,0,*77
1498104240.79,52950,19.88,74076.5,5.37,-25.61,-25.87,0,*7F
1498104242.01,52951,19.94,74092.5,5.37,-25.55,-25.87,0,*79
1498104243.21,52952,19.94,74090.3,5.41,-25.39,-25.87,0,*71
1498104244.43,52953,19.94,74086.0,5.41,-25.55,-25.87,0,*7A
1498104245.66,52954,19.94,74090.8,5.37,-25.55,-25.87,0,*7C
1498104246.88,52955,19.94,74090.5,5.41,-25.39,-25.81,0,*70
1498104248.1,52956,19.94,74082.3,5.37,-25.45,-25.87,0,*7F
1498104249.33,52957,19.94,74090.0,5.41,-25.55,-25.87,0,*7E
1498104250.52,52958,19.88,74092.8,5.41,-25.65,-25.87,0,*72
1498104251.75,52959,19.94,74094.3,5.41,-25.65,-25.97,0,*72
1498104252.97,52960,19.94,74088.8,5.41,-25.55,-25.87,0,*7A
1498104254.21,52961,19.94,74092.8,5.41,-25.49,-25.71,0,*7F
1498104255.43,52962,19.94,74092.8,5.41,-25.49,-25.81,0,*73
1498104256.66,52963,19.94,74092.0,5.41,-25.39,-25.71,0,*7A
1498104257.88,52964,19.94,74096.0,5.41,-25.39,-25.81,0,*72
1498104259.08,52965,19.94,74092.0,5.41,-25.49,-25.87,0,*72
1498104260.33,52966,19.94,74092.0,5.43,-25.49,-25.81,0,*75
1498104261.58,52967,19.94,74094.3,5.43,-25.49,-25.75,0,*7F
1498104262.81,52968,19.88,74092.8,5.41,-25.39,-25.71,0,*71
1498104264.06,52969,19.94,74098.5,5.43,-25.45,-25.65,0,*7C
1498104265.28,52970,19.88,74094.0,5.41,-25.49,-25.81,0,*70
1498104266.51,52971,19.94,74098.0,5.41,-25.49,-25.81,0,*71
1498104267.74,52972,19.94,74096.3,5.41,-25.65,-25.97,0,*7B
1498104268.98,52973,19.88,74086.0,5.43,-25.61,-25.81,0,*7B
1498104270.21,52974,19.94,74086.8,5.43,-25.61,-25.91,0,*7D
1498104271.46,52975,19.94,74086.0,5.43,-25.61,-25.97,0,*7A
1498104272.68,52976,19.94,74068.5,5.43,-25.61,-25.91,0,*7F
1498104273.95,52977,19.94,74076.8,5.43,-25.45,-25.75,0,*72
1498104275.2,52978,19.94,74088.5,5.43,-25.49,-25.81,0,*7A
1498104276.45,52979,19.94,74076.8,5.43,-25.61,-25.81,0,*71
1498104277.68,52980,19.94,74076.3,5.45,-25.55,-25.87,0,*70
1498104278.9,52981,19.94,74084.0,5.45,-25.55,-25.87,0,*71
1498104280.13,52982,19.94,74084.8,5.45,-25.75,-26.03,0,*7F
1498104281.33,52983,19.88,74084.0,5.45,-25.87,-26.07,0,*77
1498104282.56,52984,19.94,74084.8,5.45,-25.71,-26.03,0,*7D
1498104283.79,52985,19.88,74086.5,5.45,-25.71,-26.03,0,*7C
1498104285.02,52986,19.94,74090.8,5.45,-25.75,-26.07,0,*7F
1498104286.25,52987,19.94,74090.0,5.45,-25.71,-26.07,0,*7A
1498104287.47,52988,19.94,74084.8,5.45,-25.75,-26.07,0,*71
1498104288.7,52989,19.94,74092.5,5.45,-25.75,-26.03,0,*74
1498104289.95,52990,19.94,74096.5,5.43,-25.91,-26.17,0,*75
1498104291.15,52991,19.94,74094.3,5.45,-25.61,-26.03,0,*78
1498104292.34,52992,19.94,74096.5,5.49,-25.61,-25.91,0,*7F
1498104293.56,52993,19.94,74098.8,5.45,-25.55,-25.87,0,*72
1498104294.82,52994,19.94,74098.0,5.45,-25.55,-25.75,0,*78
1498104296.03,52995,19.94,74088.5,5.45,-25.45,-25.87,0,*75
1498104297.29,52996,19.94,74092.5,5.45,-25.55,-25.75,0,*7A
1498104298.51,52997,19.94,74090.0,5.45,-25.55,-25.91,0,*71
1498104299.74,52998,19.94,74098.8,5.45,-25.55,-25.87,0,*79
1498104300.93,52999,19.94,74092.5,5.45,-25.61,-25.87,0,*7F
1498104302.16,53000,19.94,74088.5,5.49,-25.75,-26.07,0,*75
1498104303.38,53001,19.94,74088.5,5.45,-25.71,-26.07,0,*7C
1498104304.58,53002,19.94,74094.3,5.45,-25.61,-26.07,0,*7E
1498104305.81,53003,19.94,74096.0,5.49,-25.71,-26.03,0,*76
1498104307.04,53004,19.94,74094.0,5.49,-25.71,-26.03,0,*71
1498104308.23,53005,19.94,74098.8,5.45,-25.61,-25.91,0,*75
1498104309.46,53006,19.94,74098.5,5.45,-25.55,-25.91,0,*71
1498104310.66,53007,19.94,74092.8,5.49,-25.61,-26.03,0,*73
1498104311.88,53008,19.94,74086.5,5.49,-25.75,-26.03,0,*79
1498104313.13,53009,19.94,74084.8,5.49,-25.75,-26.13,0,*79
1498104314.36,53010,19.94,74086.8,5.45,-25.71,-26.07,0,*7C
1498104315.6,53011,19.94,74088.5,5.49,-25.75,-26.13,0,*70
1498104316.85,53012,19.94,74084.8,5.49,-25.75,-26.13,0,*73
1498104318.08,53013,19.94,74074.5,5.45,-25.87,-26.29,0,*7A
1498104319.3,53014,19.94,74082.8,5.45,-25.75,-26.07,0,*7C
1498104320.5,53015,19.94,74080.8,5.45,-25.87,-26.07,0,*70
1498104321.73,53016,19.94,74084.8,5.45,-25.87,-26.13,0,*76
1498104322.92,53017,19.94,74088.3,5.49,-25.87,-26.07,0,*7E
1498104324.15,53018,19.94,74090.3,5.45,-25.87,-26.13,0,*78
1498104325.37,53019,19.94,74090.5,5.49,-25.87,-26.29,0,*7C
1498104326.58,53020,19.94,74080.3,5.45,-26.03,-26.39,0,*74
1498104327.78,53021,19.94,74088.3,5.45,-26.03,-26.39,0,*75
1498104328.98,53022,19.94,74090.0,5.45,-25.91,-26.39,0,*7E
1498104330.19,53023,19.94,74084.8,5.49,-26.03,-26.39,0,*7B
1498104331.39,53024,19.94,74088.5,5.45,-25.91,-26.39,0,*78
1498104332.63,53025,19.88,74084.5,5.49,-25.75,-26.13,0,*77
1498104333.86,53026,19.94,74082.5,5.45,-25.87,-26.29,0,*7C
1498104335.08,53027,19.94,74088.5,5.45,-25.87,-26.29,0,*7D
1498104336.31,53028,19.94,74086.5,5.49,-25.75,-26.07,0,*7F
1498104337.53,53029,19.88,74076.3,5.45,-25.75,-26.07,0,*72
1498104338.75,53030,19.94,74076.5,5.49,-25.91,-26.13,0,*79
1498104339.95,53031,19.94,74080.5,5.49,-25.87,-26.39,0,*77
1498104341.17,53032,19.88,74078.5,5.45,-25.87,-26.29,0,*79
1498104342.37,53033,19.94,74066.5,5.49,-26.03,-26.45,0,*71
1498104343.6,53034,19.94,74066.5,5.45,-26.03,-26.55,0,*7B
1498104344.8,53035,19.94,74076.5,5.49,-26.03,-26.45,0,*77
1498104346.02,53036,19.94,74072.3,5.45,-26.03,-26.55,0,*79
1498104347.22,53037,19.94,74072.8,5.49,-26.03,-26.45,0,*75
1498104348.43,53038,19.94,74076.0,5.45,-26.03,-26.45,0,*76
1498104349.63,53039,19.94,74076.0,5.45,-26.03,-26.45,0,*77
1498104350.83,53040,19.94,74078.8,5.45,-25.91,-26.39,0,*7A
1498104352.03,53041,19.94,74082.0,5.45,-25.91,-26.39,0,*7B
1498104353.23,53042,19.94,74080.5,5.45,-26.03,-26.39,0,*70
1498104354.47,53043,19.94,74092.5,5.45,-26.03,-26.29,0,*70
1498104355.69,53044,19.94,74092.5,5.45,-25.91,-26.29,0,*7F
1498104356.94,53045,19.94,74084.8,5.45,-25.75,-26.29,0,*74
1498104358.15,53046,19.94,74076.3,5.45,-26.03,-26.39,0,*74
1498104359.35,53047,19.94,74076.5,5.45,-26.03,-26.45,0,*7E
1498104360.57,53048,19.94,74090.8,5.43,-26.07,-26.61,0,*75
1498104361.79,53049,19.88,74086.8,5.43,-26.07,-26.49,0,*7E
1498104363.02,53050,19.88,74082.0,5.43,-26.07,-26.49,0,*76
1498104364.24,53051,19.94,74080.3,5.43,-26.07,-26.49,0,*77
1498104365.46,53052,19.94,74084.3,5.45,-25.91,-26.29,0,*78
1498104366.68,53053,19.94,74090.0,5.45,-26.03,-26.55,0,*7A
1498104367.89,53054,19.94,74096.5,5.45,-26.03,-26.45,0,*7C
1498104369.09,53055,19.94,74100.5,5.45,-26.03,-26.45,0,*7D
1498104370.31,53056,19.94,74100.8,5.43,-26.07,-26.49,0,*70
1498104371.55,53057,19.94,74098.5,5.41,-26.13,-26.55,0,*7B
1498104372.78,53058,19.94,74096.0,5.43,-26.07,-26.61,0,*74
1498104374.02,53059,19.94,74096.0,5.43,-25.97,-26.49,0,*75
1498104375.25,53060,19.94,74088.3,5.43,-26.07,-26.49,0,*75
1498104376.47,53061,19.94,74080.8,5.43,-26.07,-26.45,0,*78
1498104377.72,53062,19.88,74080.0,5.43,-25.97,-26.45,0,*71
1498104378.94,53063,19.94,74094.8,5.43,-26.07,-26.45,0,*7A
1498104380.17,53064,19.94,74088.5,5.41,-26.03,-26.55,0,*7A
1498104381.37,53065,19.94,74090.3,5.41,-26.03,-26.49,0,*76
1498104382.6,53066,19.94,74102.0,5.41,-25.97,-26.39,0,*7C
1498104383.85,53067,19.94,74092.8,5.43,-25.91,-26.33,0,*73
1498104385.06,53068,19.94,74092.5,5.41,-26.03,-26.39,0,*7C
1498104386.34,53069,19.94,74092.3,5.43,-25.97,-26.33,0,*7B
1498104387.62,53070,19.94,74094.3,5.43,-25.97,-26.33,0,*73
1498104388.86,53071,19.94,74088.5,5.43,-25.91,-26.33,0,*74
1498104390.09,53072,19.94,74084.8,5.43,-25.91,-26.45,0,*76
1498104391.31,53073,19.94,74090.3,5.43,-26.07,-26.49,0,*77
1498104392.56,53074,19.94,74090.8,5.43,-25.97,-26.61,0,*70
1498104393.78,53075,19.94,74086.8,5.43,-26.07,-26.49,0,*71
1498104395.02,53076,19.94,74084.5,5.43,-25.97,-26.49,0,*78
1498104396.25,53077,19.94,74084.0,5.41,-26.03,-26.55,0,*78
1498104397.47,53078,19.94,74090.8,5.43,-26.07,-26.49,0,*7C
1498104398.7,53079,19.94,74084.3,5.43,-26.07,-26.61,0,*77
1498104399.94,53080,19.94,74092.0,5.41,-25.97,-26.55,0,*7E
1498104401.14,53081,19.94,74094.3,5.41,-26.03,-26.49,0,*7C
1498104402.37,53082,19.94,74094.3,5.41,-26.13,-26.39,0,*79
1498104403.57,53083,19.94,74106.3,5.41,-26.03,-26.49,0,*7E
1498104404.79,53084,19.94,74094.8,5.43,-25.91,-26.45,0,*7F
1498104406.02,53085,19.94,74084.8,5.41,-25.97,-26.39,0,*71
1498104407.25,53086,19.94,74086.5,5.41,-25.97,-26.39,0,*72
1498104408.49,53087,19.94,74088.5,5.41,-25.81,-26.17,0,*78
1498104409.71,53088,19.94,74076.0,5.43,-25.91,-26.45,0,*73
1498104410.91,53089,19.94,74068.8,5.41,-26.03,-26.49,0,*74
1498104412.11,53090,19.94,74104.5,5.41,-26.03,-26.49,0,*7C
1498104413.32,53091,19.94,74104.3,5.41,-26.03,-26.49,0,*7D
1498104414.51,53092,19.94,74092.8,5.41,-25.87,-26.49,0,*71
1498104415.71,53093,19.94,74096.3,5.41,-25.87,-26.39,0,*77
1498104416.91,53094,19.94,74092.3,5.41,-25.87,-26.49,0,*77
1498104418.11,53095,19.94,74092.8,5.41,-25.87,-26.39,0,*71
1498104419.3,53096,19.94,74094.3,5.41,-25.87,-26.23,0,*79
1498104420.5,53097,19.94,74098.3,5.41,-25.87,-26.23,0,*78
1498104421.78,53098,19.94,74088.0,5.43,-25.81,-26.33,0,*72
1498104422.97,53099,19.94,74070.8,5.41,-25.87,-26.23,0,*76
1498104424.17,53100,19.94,74064.3,5.41,-25.87,-26.49,0,*7B
1498104425.36,53101,19.94,74074.3,5.41,-25.87,-26.49,0,*7A
1498104426.58,53102,19.94,74088.5,5.41,-25.97,-26.49,0,*78
1498104427.81,53103,19.94,74092.0,5.41,-25.97,-26.39,0,*7E
1498104429.01,53104,19.94,74088.0,5.41,-26.03,-26.49,0,*70
1498104430.24,53105,19.94,74096.0,5.41,-25.97,-26.39,0,*78
1498104431.47,53106,19.94,74086.3,5.41,-25.97,-26.39,0,*7B
1498104432.66,53107,19.94,74082.8,5.41,-25.87,-26.23,0,*70
1498104433.89,53108,19.94,74084.3,5.41,-25.97,-26.49,0,*72
1498104435.09,53109,19.94,74094.5,5.41,-26.03,-26.49,0,*7D
1498104436.3,53110,19.94,74098.0,5.41,-26.13,-26.49,0,*74
1498104437.5,53111,19.94,74098.3,5.41,-26.03,-26.49,0,*74
1498104438.75,53112,19.94,74080.8,5.41,-25.97,-26.55,0,*74
1498104439.98,53113,19.94,74086.3,5.41,-25.97,-26.39,0,*7F
1498104441.18,53114,19.94,74084.8,5.37,-25.91,-26.45,0,*74
1498104442.4,53115,19.94,74086.0,5.41,-25.97,-26.49,0,*7E
1498104443.62,53116,19.94,74090.3,5.41,-25.97,-26.65,0,*73
1498104444.85,53117,19.94,74096.8,5.41,-26.03,-26.55,0,*7F
1498104446.07,53118,19.94,74098.3,5.41,-25.97,-26.49,0,*73
1498104447.29,53119,19.94,74102.3,5.41,-25.81,-26.23,0,*79
1498104448.48,53120,19.94,74102.5,5.41,-25.87,-26.23,0,*75
1498104449.73,53121,19.94,74102.5,5.41,-25.81,-26.17,0,*75
1498104450.98,53122,19.94,74102.5,5.41,-25.71,-26.17,0,*79
1498104452.2,53123,19.94,74104.8,5.41,-25.81,-26.23,0,*70
1498104453.42,53124,19.94,74104.8,5.41,-25.81,-26.23,0,*77
1498104454.66,53125,19.94,74110.0,5.41,-25.81,-26.17,0,*71
1498104455.91,53126,19.94,74102.3,5.41,-25.71,-26.17,0,*7D
1498104457.17,53127,19.94,74090.5,5.41,-25.71,-26.17,0,*7C
1498104458.42,53128,19.94,74082.8,5.41,-25.71,-26.13,0,*77
1498104459.67,53129,19.94,74084.8,5.37,-25.71,-26.17,0,*73
1498104460.93,53130,19.94,74086.8,5.41,-25.71,-26.13,0,*7E
1498104462.15,53131,19.94,74090.8,5.41,-25.71,-26.23,0,*7C
1498104463.37,53132,19.94,74088.3,5.41,-25.81,-26.23,0,*70
1498104464.62,53133,19.94,74088.3,5.41,-25.71,-26.17,0,*79
1498104465.83,53134,19.94,74090.8,5.41,-25.87,-26.39,0,*7B
1498104467.05,53135,19.94,74092.8,5.41,-25.81,-26.39,0,*7C
1498104468.28,53136,19.94,74092.8,5.41,-25.97,-26.39,0,*78
1498104469.48,53137,19.94,74090.0,5.41,-25.87,-26.23,0,*73
1498104470.75,53138,19.94,74094.3,5.43,-25.81,-26.17,0,*7F
1498104471.97,53139,19.94,74090.5,5.41,-25.97,-26.49,0,*70
1498104473.19,53140,19.94,74096.0,5.41,-25.87,-26.17,0,*74
1498104474.42,53141,19.94,74092.0,5.41,-25.71,-26.23,0,*7B
1498104475.66,53142,19.94,74092.3,5.41,-25.81,-26.17,0,*70
1498104476.91,53143,19.94,74092.8,5.41,-25.71,-26.17,0,*7E
1498104478.13,53144,19.94,74096.8,5.41,-25.81,-26.23,0,*71
1498104479.36,53145,19.94,74092.3,5.41,-25.81,-26.23,0,*70
1498104480.58,53146,19.94,74096.3,5.41,-25.81,-26.39,0,*78
1498104481.77,53147,19.94,74092.8,5.41,-25.87,-26.49,0,*78
1498104482.99,53148,19.94,74088.5,5.41,-25.97,-26.49,0,*76
1498104484.19,53149,19.94,74092.3,5.41,-26.03,-26.49,0,*79
1498104485.42,53150,19.94,74090.3,5.41,-25.97,-26.39,0,*78
1498104486.65,53151,19.94,74080.3,5.41,-25.97,-26.65,0,*70
1498104487.85,53152,19.94,74078.8,5.41,-26.03,-26.65,0,*7D
1498104489.08,53153,19.94,74078.5,5.41,-26.03,-26.55,0,*7F
1498104490.31,53154,19.94,74086.5,5.41,-25.97,-26.39,0,*7C
1498104491.53,53155,19.94,74082.3,5.41,-25.97,-26.49,0,*7A
1498104492.75,53156,19.94,74082.8,5.41,-25.97,-26.39,0,*7E
1498104493.96,53157,19.94,74084.5,5.41,-25.87,-26.39,0,*7E
1498104495.15,53158,19.94,74080.3,5.41,-25.87,-26.49,0,*76
1498104496.35,53159,19.94,74082.8,5.41,-25.87,-26.23,0,*7B
1498104497.54,53160,19.94,74078.0,5.41,-25.87,-26.23,0,*71
1498104498.75,53161,19.94,74070.3,5.41,-25.87,-26.39,0,*7B